Ted Stevens Anchorage International Airport
PANC : rendu visible

Aérodrome :











RETROUVEZ-NOUS SUR...

 
LOGIN :

S'inscrire | Disclaimer

   EN    FR    IT 

 









Légende :    VFR   VFR Marginal   IFR   IFR Intensif   IFR Très Intensif
Visi : 
Plafond : 
>= 8 km
>= 3000ft
5 à 8 km
1000 à 3000 ft
1500m à 5 km
500 à 1000 ft
800 à 1500m
200 à 500 ft
< 800m
< 200 ft
Symboles :   Orages  Brouillard  Fortes neiges  Fortes précipitations  Vent > 20 kt






- Altitude de l'aérodrome : 152 ft
- Code IATA : ANC


PANC - Ted Stevens Anchorage International

DERNIER METAR :
  • 081853Z 35005KT 10SM BKN130 OVC200 M03/M13 A2971 RMK AO2 SLP063 T10331133

METARs EXPIRÉS :
  • 081753Z 36005KT 10SM BKN130 BKN200 M05/M14 A2968 RMK AO2 SLP054 4/017 T10501139 11050 21061 53012
  • 081653Z 34013G19KT 10SM BKN110 BKN200 M06/M14 A2966 RMK AO2 SLP048 T10561144

TAF PANC
Valide du 08 à 19h jusqu'au 10 à 00h UTC


081909Z 0819/0924 VRB06KT P6SM FEW060 BKN130 BKN200



MET'MAP, la Météo Aéronautique d'un coup d'oeil ! - Copyright ORBIFLY Décembre 2007 - Disclaimer

ORBIFLY MET'MAP TEAM :

Programmation & Développement : Alexandra Zaïnal
Sur une idée originale de : Baudouin d'Aumeries
Assistance à la programmation : Marc-Olivier Méhu
Soutien technique & logistique : Manuel Goepfert

Contact : metmap@orbifly.com




SOURCES & CREDITS :

   NOAA       Earth
Advisory